Inquirer Daily News

Weather

Get conditions and forecasts for any City, State, ZIP code or Country:  
Northeast Philadelphia, PA
on Saturday, November 10, 2012

Saturday
Previous Day Next Day
Daily Summary
 ActualAverage (KTTN)Record (KTTN)
Temperature
Mean Temperature °F 48°F  
Max Temperature 55°F 57°F 72°F (1999)
Min Temperature 33°F 38°F 23°F (2003)
Degree Days
Heating Degree Days 21 17  
Month to date heating degree days 162  
Since 1 July heating degree days 559  
Cooling Degree Days 0 0  
Month to date cooling degree days 0  
Year to date cooling degree days 965  
Moisture
Dew Point 35°F   
Average Humidity 69    
Maximum Humidity 89    
Minimum Humidity 47    
Precipitation
Precipitation 0.00 in 0.11 in 2.10 in (1875)
Month to date precipitation 1.08  
Year to date precipitation 40.51  
Wind
Wind Speed 1 mph   
Max Wind Speed 5 mph   
Max Gust Speed mph   
Visibility 9 miles   
Events     

Key: T is trace of precipitation, MM is missing value
Source: NWS Daily Summary
Time(EST)TemperatureDew PointHumidity Pressure Visibility Wind DirectionWind SpeedGust SpeedPrecipitationEvents Conditions
12:54 AM 37.0°F 30.9°F 79% 30.25 in 10.0 miles Calm Calm - N/A   Clear
1:54 AM 37.0°F 32.0°F 82% 30.25 in 10.0 miles Calm Calm - N/A   Clear
2:54 AM 36.0°F 32.0°F 86% 30.27 in 10.0 miles Calm Calm - N/A   Clear
3:54 AM 35.1°F 30.9°F 85% 30.28 in 10.0 miles Calm Calm - N/A   Clear
4:54 AM 35.1°F 30.9°F 85% 30.29 in 10.0 miles Calm Calm - N/A   Clear
5:54 AM 35.1°F 30.9°F 85% 30.31 in 10.0 miles Calm Calm - N/A   Clear
6:54 AM 33.8°F 30.2°F 87% 30.32 in 9.0 miles Calm Calm - N/A   Clear
7:54 AM 39.0°F 35.1°F 86% 30.35 in 9.0 miles Calm Calm - N/A   Clear
8:54 AM 46.9°F 36.0°F 66% 30.36 in 10.0 miles Calm Calm - N/A   Clear
9:54 AM 50.0°F 35.1°F 57% 30.35 in 10.0 miles West 3.5 mph - N/A   Scattered Clouds
10:54 AM 52.0°F 36.0°F 54% 30.36 in 10.0 miles Calm Calm - N/A   Overcast
11:54 AM 55.0°F 35.1°F 47% 30.34 in 10.0 miles Calm Calm - N/A   Mostly Cloudy
12:54 PM 55.9°F 36.0°F 47% 30.33 in 9.0 miles Calm Calm - N/A   Overcast
1:54 PM 55.9°F 36.0°F 47% 30.32 in 7.0 miles SSW 4.6 mph - N/A   Overcast
2:54 PM 55.9°F 37.0°F 49% 30.33 in 7.0 miles Calm Calm - N/A   Overcast
3:54 PM 55.9°F 36.0°F 47% 30.34 in 9.0 miles Calm Calm - N/A   Overcast
4:54 PM 54.0°F 37.0°F 53% 30.35 in 9.0 miles Calm Calm - N/A   Clear
5:54 PM 50.0°F 37.0°F 61% 30.37 in 9.0 miles Calm Calm - N/A   Overcast
6:54 PM 50.0°F 37.9°F 63% 30.38 in 9.0 miles ESE 4.6 mph - N/A   Mostly Cloudy
7:54 PM 48.0°F 37.0°F 66% 30.40 in 9.0 miles Calm Calm - N/A   Clear
8:54 PM 45.0°F 37.0°F 74% 30.42 in 8.0 miles ENE 3.5 mph - N/A   Clear
9:54 PM 45.0°F 37.0°F 74% 30.43 in 7.0 miles Calm Calm - N/A   Clear
10:54 PM 39.2°F 35.6°F 87% 30.43 in 6.0 miles NE 3.5 mph - N/A   Haze
11:54 PM 39.0°F 36.0°F 89% 30.43 in 6.0 miles NE 3.5 mph - N/A   Clear
Astronomy
Sunrise:06:40 AM (EST) Moon Rise:02:42 AM (EST)11/10
Sunset:04:47 PM (EST) Moon Set:02:32 PM (EST)11/10
Moon Phase
Nov. 10 Nov. 13 Nov. 20 Nov. 28 Dec. 06

Copyright © 2014 The Weather Underground, Inc.